Lid_Strength_Index
2 2 2 3 3 3 3 4 4 4 4 4 4 3 3 3 3 6 9 6 3 2 2 4 3 4 3 4 4 4 8 9 9 8 8 5 6 6 6 6 6 6 6 7 6
3 2 2 2 2 2 3 3 3 3 3 4 4 3 3 3 7 9 6 4 2 2 4 5 6 4 5 5 5 5 8 8 6 6 7 6 5 6 6 6 7 7 7 7 6
3 3 2 2 2 2 2 2 2 2 2 3 3 3 3 4 9 9 5 4 4 3 4 4 4 4 5 4 6 5 8 7 8 7 7 7 7 6 7 7 6 7 7 7 7
3 3 2 2 2 2 2 2 2 1 2 2 3 3 2 5 13 8 5 5 5 5 5 5 5 6 6 6 6 7 8 7 8 8 8 8 7 8 7 7 7 6 5 6 7
3 2 2 2 2 2 2 2 2 2 1 2 3 3 5 9 10 7 6 7 6 7 7 6 7 6 7 6 6 6 8 8 8 9 8 8 8 8 8 6 7 7 6 7 7
3 3 3 3 3 2 2 2 1 2 2 3 3 3 7 11 7 7 7 8 7 7 8 7 6 6 7 8 7 7 8 9 9 9 9 9 9 9 8 8 8 8 7 7 7
4 4 4 4 3 3 2 2 2 2 3 3 3 5 9 10 7 6 7 8 7 8 8 8 6 6 7 9 8 8 9 9 9 9 9 9 10 10 8 9 9 8 7 7 7
5 5 4 4 3 3 3 3 3 5 4 4 4 7 10 7 6 7 7 8 8 8 7 7 7 7 7 8 9 10 9 11 9 10 10 10 11 9 10 9 9 8 8 8 7
5 5 5 4 4 3 3 3 5 4 4 4 7 9 12 7 9 8 7 9 8 8 8 8 8 10 9 9 11 11 12 11 12 10 10 11 10 11 10 10 9 8 8 8 8
6 5 5 5 4 4 3 4 4 4 5 7 8 11 11 11 9 8 7 8 9 9 10 9 9 11 11 11 13 12 13 12 11 11 11 11 11 9 9 10 9 8 8 8 8
6 6 6 5 5 4 5 6 7 8 8 9 10 11 11 9 9 9 8 9 9 10 12 11 12 14 12 12 12 11 11 12 12 12 12 11 11 10 9 9 10 9 9 8 8
7 7 6 5 5 3 6 8 7 6 10 9 9 10 9 9 12 10 9 11 11 13 11 13 14 11 11 12 13 13 13 13 12 12 12 12 12 10 9 9 9 9 9 8 8
8 7 7 6 4 5 7 8 6 7 8 10 9 11 10 9 12 11 10 11 12 13 13 14 14 12 13 14 14 14 14 13 13 12 12 13 12 10 10 10 10 10 9 8 8
8 8 7 6 6 8 9 7 6 6 13 11 11 10 10 10 12 10 10 11 13 14 13 13 13 14 14 14 13 15 13 14 15 15 16 14 15 12 11 11 10 10 10 9 9
8 8 8 6 9 9 9 8 8 7 20 9 11 8 10 11 11 12 10 11 14 14 13 15 15 15 15 14 13 14 14 14 14 15 15 15 16 14 12 12 11 11 10 10 10
8 8 8 6 8 9 8 7 6 14 20 14 11 12 13 12 12 11 11 10 11 14 13 14 13 13 14 14 14 13 13 13 13 14 17 15 15 12 12 13 12 12 11 11 12
9 8 9 8 8 7 7 7 15 18 13 15 13 12 12 13 13 13 14 14 14 16 16 15 15 14 13 15 13 13 14 16 17 18 18 16 17 12 12 13 13 12 11 11 11
8 8 8 7 6 6 7 12 18 15 14 12 12 12 13 13 13 14 14 15 13 14 15 18 19 15 13 14 15 14 14 15 20 18 16 17 17 13 12 13 12 12 11 10 11
7 8 8 7 6 6 9 16 16 13 12 13 13 14 15 14 13 14 14 14 14 14 15 17 17 15 14 14 14 15 16 13 16 18 16 15 14 12 13 13 12 11 10 10 10
8 8 8 6 6 7 12 15 13 12 11 12 14 13 16 15 14 14 14 12 14 13 13 14 18 16 15 14 13 14 14 17 15 19 19 16 15 13 15 13 12 11 11 10 10
8 10 7 7 7 10 15 15 12 11 11 13 13 14 13 15 13 14 14 13 12 13 12 13 13 17 15 16 16 16 16 15 14 15 17 18 14 12 12 12 11 10 10 10 10
7 13 7 6 13 15 15 14 11 11 11 12 12 12 12 13 14 14 14 13 11 12 14 12 13 17 17 15 14 15 15 14 16 18 16 16 14 12 11 10 10 10 10 10 9
9 10 6 7 13 14 14 14 11 12 12 12 12 12 12 13 15 13 12 12 11 12 12 11 13 18 18 16 15 16 15 15 15 14 17 16 14 12 12 11 10 10 10 10 10
8 11 10 9 8 10 12 14 13 10 11 11 12 12 13 14 13 14 14 13 10 11 10 10 12 14 16 15 15 17 16 15 14 16 15 14 13 13 12 11 10 9 10 10 10
9 11 10 12 13 10 10 10 11 13 10 10 12 11 12 14 14 14 13 13 11 10 11 11 15 14 14 14 14 14 15 15 15 14 15 13 13 11 11 10 9 9 11 10 10
10 10 9 11 10 9 10 12 11 10 11 11 12 10 10 13 12 14 12 12 12 10 11 11 15 14 16 15 14 15 14 14 14 14 13 13 13 8 8 9 9 10 10 10 10
7 7 9 12 10 10 10 11 10 9 11 9 9 10 11 10 9 9 9 9 9 11 12 12 14 14 16 16 15 16 14 13 13 12 12 14 11 9 9 10 10 11 11 11 10